, OR

(GMT )
Tillamook

Weather History for KTMK - November, 2012

Change the Weather History Date:

Tuesday, November 20, 2012

  Actual Average Record
Temperature  
Mean Temperature 52 °F -  
Max Temperature 57 °F - - ()
Min Temperature 48 °F - - ()
Degree Days  
Heating Degree Days 12    
Growing Degree Days 2 (Base 50)    
Moisture  
Dew Point 47 °F    
Average Humidity 85    
Maximum Humidity 100    
Minimum Humidity 72    
Precipitation  
Precipitation 0.40 in - - ()
Sea Level Pressure  
Sea Level Pressure 29.64 in    
Wind  
Wind Speed 6 mph (SSE)    
Max Wind Speed 24 mph    
Max Gust Speed 46 mph    
Visibility 9 miles    
Events Rain    
Averages and records for this station are not official NWS values.
T = Trace of Precipitation, MM = Missing Value Source: NWS Daily Summary

Daily Weather History Graph

Daily Weather History Graph

Search for Another Location

Airport or City:

Trip Planner

Search our weather history database for the weather conditions in past years. The results will help you decide how hot, cold, wet, or windy it might be!

Date:

Astronomy

Nov. 20, 2012 Rise Set
Actual Time 8:21 AM MST 5:40 PM MST
Civil Twilight 7:49 AM MST 6:12 PM MST
Nautical Twilight 7:12 AM MST 6:48 PM MST
Astronomical Twilight 6:37 AM MST 7:23 PM MST
Moon 1:48 PM MST (11/20) 12:22 AM MST (11/20)
Length of Visible Light 10h 23m
Length of Day
9h 18m
First Quarter, 52% of the Moon is Illuminated
Nov 20
First Quarter
Nov 28
Full
Dec 6
Last Quarter
Dec 13
New
Dec 19
First Quarter

Hourly Weather History & Observations

Time (MST) Temp. Dew Point Humidity Pressure Visibility Wind Dir Wind Speed Gust Speed Precip Events Conditions
12:15 AM 51.8 °F 48.2 °F 88% 29.70 in 10.0 mi SSE 8.1 mph - N/A   Scattered Clouds
12:35 AM 51.8 °F 48.2 °F 88% 29.70 in 10.0 mi SSE 5.8 mph - N/A   Scattered Clouds
12:55 AM 51.8 °F 50.0 °F 94% 29.71 in 10.0 mi Calm Calm - N/A   Mostly Cloudy
1:15 AM 51.8 °F 50.0 °F 94% 29.70 in 10.0 mi Calm Calm - N/A   Scattered Clouds
1:35 AM 53.6 °F 50.0 °F 88% 29.71 in 10.0 mi SSE 5.8 mph - N/A   Scattered Clouds
5:15 AM 50.0 °F 46.4 °F 87% 29.66 in 10.0 mi Calm Calm - N/A   Clear
5:35 AM 48.2 °F 46.4 °F 93% 29.65 in 10.0 mi Calm Calm - N/A   Mostly Cloudy
5:55 AM 48.2 °F 48.2 °F 100% 29.64 in 10.0 mi Calm Calm - N/A   Mostly Cloudy
6:15 AM 48.2 °F 48.2 °F 100% 29.63 in 10.0 mi Calm Calm - N/A   Light Drizzle
6:35 AM 50.0 °F 48.2 °F 94% 29.62 in 10.0 mi ENE 5.8 mph - N/A   Scattered Clouds
6:55 AM 50.0 °F 46.4 °F 87% 29.61 in 10.0 mi Calm Calm - N/A   Clear
7:15 AM 48.2 °F 46.4 °F 93% 29.60 in 10.0 mi SSE 3.5 mph - N/A   Clear
7:35 AM 48.2 °F 46.4 °F 93% 29.59 in 10.0 mi Calm Calm - N/A   Scattered Clouds
7:55 AM 48.2 °F 46.4 °F 93% 29.58 in 10.0 mi SSW 3.5 mph - N/A   Mostly Cloudy
8:15 AM 48.2 °F 46.4 °F 93% 29.55 in 10.0 mi Calm Calm - N/A   Overcast
8:35 AM 50.0 °F 48.2 °F 94% 29.54 in 10.0 mi Calm Calm - N/A   Overcast
8:55 AM 51.8 °F 48.2 °F 88% 29.54 in 10.0 mi ESE 4.6 mph - N/A Rain Light Rain
9:15 AM 53.6 °F 46.4 °F 77% 29.53 in 10.0 mi SSE 5.8 mph - 0.01 in Rain Light Rain
9:35 AM 51.8 °F 48.2 °F 88% 29.55 in 7.0 mi South 8.1 mph - 0.06 in Rain Light Rain
9:55 AM 51.8 °F 48.2 °F 88% 29.59 in 1.8 mi SSW 24.2 mph 46.0 mph 0.14 in Rain Rain
10:15 AM 50.0 °F 46.4 °F 87% 29.58 in 7.0 mi South 10.4 mph - 0.02 in Rain Light Rain
10:35 AM 51.8 °F 48.2 °F 88% 29.57 in 10.0 mi SSE 9.2 mph - 0.03 in Rain Light Rain
10:55 AM 51.8 °F 50.0 °F 94% 29.58 in 10.0 mi South 12.7 mph 17.3 mph 0.03 in Rain Light Rain
11:15 AM 55.4 °F 48.2 °F 77% 29.59 in 10.0 mi South 16.1 mph 27.6 mph N/A   Overcast
11:35 AM 55.4 °F 50.0 °F 82% 29.59 in 10.0 mi SSW 12.7 mph 25.3 mph N/A   Overcast
12:15 PM 55.4 °F 50.0 °F 82% 29.59 in 10.0 mi South 21.9 mph 34.5 mph N/A   Mostly Cloudy
12:35 PM 57.2 °F 50.0 °F 77% 29.62 in 10.0 mi SW 24.2 mph 41.4 mph N/A   Mostly Cloudy
12:55 PM 50.0 °F 44.6 °F 82% 29.65 in 0.8 mi SSW 20.7 mph 38.0 mph 0.09 in Rain Rain
1:15 PM 51.8 °F 48.2 °F 88% 29.65 in 10.0 mi South 13.8 mph 25.3 mph 0.01 in   Mostly Cloudy
1:35 PM 53.6 °F 48.2 °F 82% 29.65 in 10.0 mi SSW 13.8 mph 17.3 mph 0.01 in   Mostly Cloudy
1:55 PM 55.4 °F 48.2 °F 77% 29.65 in 10.0 mi SSW 15.0 mph 21.9 mph 0.01 in   Mostly Cloudy
2:15 PM 55.4 °F 48.2 °F 77% 29.66 in 10.0 mi SSW 12.7 mph 20.7 mph N/A   Mostly Cloudy
2:35 PM 55.4 °F 48.2 °F 77% 29.66 in 10.0 mi South 16.1 mph 23.0 mph N/A   Mostly Cloudy
2:55 PM 55.4 °F 48.2 °F 77% 29.66 in 10.0 mi South 16.1 mph 21.9 mph N/A Rain Light Rain
3:15 PM 51.8 °F 48.2 °F 88% 29.67 in 7.0 mi SSW 6.9 mph - 0.04 in Rain Light Rain
3:35 PM 53.6 °F 48.2 °F 82% 29.68 in 10.0 mi SSW 6.9 mph - 0.04 in   Overcast
3:55 PM 53.6 °F 46.4 °F 77% 29.68 in 10.0 mi South 6.9 mph - 0.04 in   Overcast
4:15 PM 51.8 °F 48.2 °F 88% 29.68 in 10.0 mi SSE 6.9 mph - N/A   Mostly Cloudy
4:35 PM 51.8 °F 46.4 °F 82% 29.68 in 10.0 mi SSE 12.7 mph 19.6 mph N/A   Mostly Cloudy
4:55 PM 53.6 °F 44.6 °F 72% 29.69 in 10.0 mi South 15.0 mph 19.6 mph N/A   Mostly Cloudy
5:15 PM 51.8 °F 44.6 °F 76% 29.69 in 10.0 mi South 9.2 mph 18.4 mph N/A   Scattered Clouds
5:35 PM 51.8 °F 44.6 °F 76% 29.68 in 10.0 mi South 12.7 mph 16.1 mph N/A   Scattered Clouds
5:55 PM 51.8 °F 44.6 °F 76% 29.68 in 10.0 mi South 6.9 mph - N/A   Scattered Clouds
6:15 PM 51.8 °F 44.6 °F 76% 29.69 in 10.0 mi SE 4.6 mph - N/A   Scattered Clouds
6:35 PM 50.0 °F 44.6 °F 82% 29.69 in 10.0 mi East 3.5 mph - N/A   Scattered Clouds
6:55 PM 50.0 °F 44.6 °F 82% 29.69 in 10.0 mi ENE 3.5 mph - N/A   Scattered Clouds
7:15 PM 48.2 °F 44.6 °F 87% 29.69 in 10.0 mi East 5.8 mph - N/A   Clear
7:35 PM 50.0 °F 44.6 °F 82% 29.69 in 10.0 mi Calm Calm - N/A   Scattered Clouds
7:55 PM 50.0 °F 42.8 °F 76% 29.68 in 10.0 mi Calm Calm - N/A   Mostly Cloudy
8:15 PM 50.0 °F 42.8 °F 76% 29.68 in 10.0 mi Calm Calm - N/A   Overcast
8:35 PM 50.0 °F 42.8 °F 76% 29.67 in 10.0 mi Calm Calm - N/A   Mostly Cloudy
8:55 PM 48.2 °F 42.8 °F 82% 29.65 in 10.0 mi Calm Calm - N/A   Mostly Cloudy
9:15 PM 48.2 °F 44.6 °F 87% 29.65 in 7.0 mi SE 4.6 mph - 0.01 in Rain Light Rain
9:35 PM 48.2 °F 44.6 °F 87% 29.63 in 10.0 mi ESE 3.5 mph - 0.01 in   Overcast
9:55 PM 50.0 °F 44.6 °F 82% 29.62 in 10.0 mi East 3.5 mph - 0.01 in   Overcast
10:15 PM 48.2 °F 44.6 °F 87% 29.62 in 10.0 mi Calm Calm - N/A   Overcast
10:35 PM 48.2 °F 44.6 °F 87% 29.61 in 10.0 mi SE 8.1 mph - N/A   Overcast
10:55 PM 50.0 °F 44.6 °F 82% 29.60 in 10.0 mi SE 8.1 mph - N/A   Overcast
11:15 PM 50.0 °F 44.6 °F 82% 29.59 in 7.0 mi SE 10.4 mph - 0.01 in Rain Light Rain
11:35 PM 50.0 °F 44.6 °F 82% 29.58 in 7.0 mi SE 8.1 mph - 0.03 in Rain Rain
11:55 PM 50.0 °F 46.4 °F 87% 29.59 in 7.0 mi South 8.1 mph - 0.08 in Rain Heavy Rain